TimeEDT,TemperatureF,Dew PointF,Humidity,Sea Level PressureIn,VisibilityMPH,Wind Direction,Wind SpeedMPH,Gust SpeedMPH,PrecipitationIn,Events,Conditions,WindDirDegrees,DateUTC
12:15 AM,58.6,46.8,65,30.06,10.0,Calm,Calm,-,N/A,,Clear,0,2012-10-25 04:15:00
12:35 AM,58.5,46.6,65,30.06,10.0,Calm,Calm,-,N/A,,Clear,0,2012-10-25 04:35:00
12:55 AM,58.6,46.6,64,30.06,10.0,SSE,3.5,-,N/A,,Clear,160,2012-10-25 04:55:00
1:15 AM,56.8,47.3,70,30.05,10.0,SE,3.5,-,N/A,,Clear,140,2012-10-25 05:15:00
1:35 AM,56.5,46.8,70,30.05,10.0,Calm,Calm,-,N/A,,Clear,0,2012-10-25 05:35:00
1:55 AM,56.8,46.4,68,30.05,10.0,Calm,Calm,-,N/A,,Clear,0,2012-10-25 05:55:00
2:15 AM,56.7,46.6,69,30.05,10.0,Calm,Calm,-,N/A,,Clear,0,2012-10-25 06:15:00
2:35 AM,56.8,46.6,69,30.05,10.0,Calm,Calm,-,N/A,,Clear,0,2012-10-25 06:35:00
2:55 AM,57.6,46.4,66,30.05,10.0,Calm,Calm,-,N/A,,Clear,0,2012-10-25 06:55:00
3:35 AM,55.0,46.9,74,30.05,10.0,Calm,Calm,-,N/A,,Clear,0,2012-10-25 07:35:00
3:55 AM,55.6,46.9,73,30.04,10.0,Calm,Calm,-,N/A,,Clear,0,2012-10-25 07:55:00
4:15 AM,55.0,46.6,73,30.04,10.0,Calm,Calm,-,N/A,,Clear,0,2012-10-25 08:15:00
4:35 AM,54.3,46.2,74,30.04,10.0,Calm,Calm,-,N/A,,Clear,0,2012-10-25 08:35:00
4:55 AM,53.2,46.4,78,30.03,10.0,Calm,Calm,-,N/A,,Clear,0,2012-10-25 08:55:00
5:15 AM,52.9,46.4,79,30.03,10.0,Calm,Calm,-,N/A,,Clear,0,2012-10-25 09:15:00
5:35 AM,53.2,45.9,76,30.04,10.0,Calm,Calm,-,N/A,,Clear,0,2012-10-25 09:35:00
5:55 AM,53.6,46.0,76,30.04,10.0,Calm,Calm,-,N/A,,Clear,0,2012-10-25 09:55:00
6:15 AM,53.1,45.7,76,30.05,10.0,Calm,Calm,-,N/A,,Clear,0,2012-10-25 10:15:00
6:35 AM,52.3,45.9,79,30.06,10.0,Calm,Calm,-,N/A,,Clear,0,2012-10-25 10:35:00
6:55 AM,51.3,45.1,80,30.06,10.0,Calm,Calm,-,N/A,,Clear,0,2012-10-25 10:55:00
7:35 AM,49.8,44.8,83,30.06,10.0,Calm,Calm,-,N/A,,Clear,0,2012-10-25 11:35:00
7:55 AM,49.3,44.2,83,30.06,10.0,Calm,Calm,-,N/A,,Clear,0,2012-10-25 11:55:00
8:15 AM,50.2,44.8,82,30.07,10.0,Calm,Calm,-,N/A,,Clear,0,2012-10-25 12:15:00
8:35 AM,51.4,45.3,80,30.07,10.0,Calm,Calm,-,N/A,,Clear,0,2012-10-25 12:35:00
8:55 AM,52.2,46.0,80,30.08,10.0,Calm,Calm,-,N/A,,Clear,0,2012-10-25 12:55:00
9:55 AM,59.7,48.9,67,30.08,10.0,Calm,Calm,-,N/A,,Clear,0,2012-10-25 13:55:00
10:15 AM,63.7,49.1,59,30.09,10.0,Calm,Calm,-,N/A,,Clear,0,2012-10-25 14:15:00
10:35 AM,66.2,47.5,51,30.09,10.0,SSW,5.8,-,N/A,,Clear,200,2012-10-25 14:35:00
10:55 AM,68.5,46.8,46,30.09,10.0,SSW,8.1,-,N/A,,Clear,200,2012-10-25 14:55:00
11:15 AM,70.2,45.7,41,30.08,10.0,SW,8.1,-,N/A,,Clear,220,2012-10-25 15:15:00
11:55 AM,73.0,45.3,37,30.08,10.0,SSW,6.9,-,N/A,,Clear,210,2012-10-25 15:55:00
12:15 PM,74.5,45.1,35,30.07,10.0,SSW,9.2,-,N/A,,Clear,200,2012-10-25 16:15:00
12:35 PM,76.3,43.2,31,30.07,10.0,South,6.9,-,N/A,,Clear,190,2012-10-25 16:35:00
12:55 PM,77.4,42.6,29,30.06,10.0,South,9.2,-,N/A,,Clear,190,2012-10-25 16:55:00
1:15 PM,78.6,43.0,28,30.04,10.0,South,8.1,-,N/A,,Clear,190,2012-10-25 17:15:00
1:35 PM,80.4,43.0,26,30.03,10.0,SW,11.5,17.3,N/A,,Clear,220,2012-10-25 17:35:00
1:55 PM,81.0,43.0,26,30.02,10.0,SSW,13.8,18.4,N/A,,Clear,210,2012-10-25 17:55:00
2:15 PM,81.3,42.3,25,30.01,10.0,SSW,12.7,17.3,N/A,,Clear,210,2012-10-25 18:15:00
2:35 PM,81.7,41.2,24,30.01,10.0,SW,12.7,19.6,N/A,,Clear,220,2012-10-25 18:35:00
2:55 PM,81.9,40.5,23,30.00,10.0,SSW,13.8,18.4,N/A,,Clear,210,2012-10-25 18:55:00
3:15 PM,81.7,40.6,23,29.99,10.0,SSW,15.0,19.6,N/A,,Clear,200,2012-10-25 19:15:00
3:35 PM,81.9,41.0,23,29.99,10.0,SSW,15.0,23.0,N/A,,Clear,210,2012-10-25 19:35:00
3:55 PM,81.7,41.2,24,29.99,10.0,SSW,12.7,17.3,N/A,,Clear,200,2012-10-25 19:55:00
4:15 PM,81.9,40.6,23,29.98,10.0,South,15.0,-,N/A,,Clear,190,2012-10-25 20:15:00
4:35 PM,81.7,40.1,23,29.98,10.0,SSW,11.5,-,N/A,,Clear,210,2012-10-25 20:35:00
4:55 PM,81.3,39.9,23,29.97,10.0,South,13.8,-,N/A,,Clear,190,2012-10-25 20:55:00
5:35 PM,80.2,40.8,25,29.97,10.0,South,13.8,17.3,N/A,,Clear,170,2012-10-25 21:35:00
5:55 PM,79.2,41.7,26,29.97,10.0,South,11.5,-,N/A,,Clear,170,2012-10-25 21:55:00
6:15 PM,77.9,41.7,27,29.97,10.0,SSE,8.1,-,N/A,,Clear,160,2012-10-25 22:15:00
6:35 PM,75.0,43.2,32,29.97,10.0,South,6.9,-,N/A,,Clear,170,2012-10-25 22:35:00
6:55 PM,72.5,44.1,36,29.98,10.0,South,4.6,-,N/A,,Clear,180,2012-10-25 22:55:00
7:15 PM,72.0,44.1,37,29.98,10.0,South,5.8,-,N/A,,Clear,170,2012-10-25 23:15:00
7:35 PM,70.0,44.2,40,29.98,10.0,SSW,3.5,-,N/A,,Clear,210,2012-10-25 23:35:00
7:55 PM,68.7,44.8,42,29.98,10.0,South,3.5,-,N/A,,Clear,190,2012-10-25 23:55:00
8:15 PM,68.4,45.0,43,29.98,10.0,SSW,6.9,-,N/A,,Clear,210,2012-10-26 00:15:00
8:35 PM,67.8,45.3,44,29.98,10.0,SSW,6.9,-,N/A,,Clear,200,2012-10-26 00:35:00
9:15 PM,63.7,45.3,51,29.97,10.0,South,8.1,-,N/A,,Clear,170,2012-10-26 01:15:00
9:35 PM,64.2,45.3,50,29.97,10.0,South,8.1,-,N/A,,Clear,170,2012-10-26 01:35:00
9:55 PM,64.2,45.0,50,29.98,10.0,South,8.1,-,N/A,,Clear,170,2012-10-26 01:55:00
10:15 PM,63.7,44.8,50,29.98,10.0,SSW,3.5,-,N/A,,Clear,210,2012-10-26 02:15:00
10:35 PM,64.4,44.4,48,29.98,10.0,SSW,4.6,-,N/A,,Clear,210,2012-10-26 02:35:00
10:55 PM,62.8,44.6,51,29.98,10.0,SSE,3.5,-,N/A,,Clear,160,2012-10-26 02:55:00
11:15 PM,62.1,44.2,52,29.98,10.0,South,3.5,-,N/A,,Clear,190,2012-10-26 03:15:00
11:55 PM,61.3,44.4,54,29.98,10.0,SE,4.6,-,N/A,,Clear,140,2012-10-26 03:55:00